QPF
0.00 0.00 0.00 0.00 0.00 0.00 0.00 0.00 0.00 0.00 0.00 0.00 0.00 0.00 0.00 0.00 0.00 0.00 0.00 0.00 0.00 0.00 0.00 0.00 0.00 0.00 0.00 0.00 0.00 0.00 0.00 0.00 0.00 0.00 0.00 0.00 0.00 0.00 0.00 0.00 0.00 0.00
0.00 0.00 0.00 0.00 0.00 0.00 0.00 0.00 0.00 0.00 0.00 0.00 0.00 0.00 0.00 0.00 0.00 0.00 0.00 0.00 0.00 0.00 0.00 0.00 0.00 0.00 0.00 0.00 0.00 0.00 0.00 0.00 0.00 0.00 0.00 0.00 0.00 0.00 0.00 0.00 0.00 0.00
0.00 0.00 0.00 0.00 0.00 0.00 0.00 0.00 0.00 0.00 0.00 0.00 0.00 0.00 0.00 0.00 0.00 0.00 0.00 0.00 0.00 0.00 0.00 0.00 0.00 0.00 0.00 0.00 0.00 0.00 0.00 0.00 0.00 0.00 0.00 0.00 0.00 0.00 0.00 0.00 0.00 0.00
0.00 0.00 0.00 0.00 0.00 0.00 0.00 0.00 0.00 0.00 0.00 0.00 0.00 0.00 0.00 0.00 0.00 0.00 0.00 0.00 0.00 0.00 0.00 0.00 0.00 0.00 0.00 0.00 0.00 0.00 0.00 0.00 0.00 0.00 0.00 0.00 0.00 0.00 0.00 0.00 0.00 0.00
0.00 0.00 0.00 0.00 0.00 0.00 0.00 0.00 0.00 0.00 0.00 0.00 0.00 0.00 0.00 0.00 0.00 0.00 0.00 0.00 0.00 0.00 0.00 0.00 0.00 0.00 0.00 0.00 0.00 0.00 0.00 0.00 0.00 0.00 0.00 0.00 0.00 0.00 0.00 0.00 0.00 0.00
0.00 0.00 0.00 0.00 0.00 0.00 0.00 0.00 0.00 0.00 0.00 0.00 0.00 0.00 0.00 0.00 0.00 0.00 0.00 0.00 0.00 0.00 0.00 0.00 0.00 0.00 0.00 0.00 0.00 0.00 0.00 0.00 0.00 0.00 0.00 0.00 0.00 0.00 0.00 0.00 0.00 0.00
0.00 0.00 0.00 0.00 0.00 0.00 0.00 0.00 0.00 0.00 0.00 0.00 0.00 0.00 0.00 0.00 0.00 0.00 0.00 0.00 0.00 0.00 0.00 0.00 0.00 0.00 0.00 0.00 0.00 0.00 0.00 0.00 0.00 0.00 0.00 0.00 0.00 0.00 0.00 0.00 0.00 0.00
0.00 0.00 0.00 0.00 0.00 0.00 0.00 0.00 0.00 0.00 0.00 0.00 0.00 0.00 0.00 0.00 0.00 0.00 0.00 0.00 0.00 0.00 0.00 0.00 0.00 0.00 0.00 0.00 0.00 0.00 0.00 0.00 0.00 0.00 0.00 0.00 0.00 0.00 0.00 0.00 0.00 0.00
0.00 0.00 0.00 0.00 0.00 0.00 0.00 0.00 0.00 0.00 0.00 0.00 0.00 0.00 0.00 0.00 0.00 0.00 0.00 0.00 0.00 0.00 0.00 0.00 0.00 0.00 0.00 0.00 0.00 0.00 0.00 0.00 0.00 0.00 0.00 0.00 0.00 0.00 0.00 0.00 0.00 0.00
0.00 0.00 0.00 0.00 0.00 0.00 0.00 0.00 0.00 0.00 0.00 0.00 0.00 0.00 0.00 0.00 0.00 0.00 0.00 0.00 0.00 0.00 0.00 0.00 0.00 0.00 0.00 0.00 0.00 0.00 0.00 0.00 0.00 0.00 0.00 0.00 0.00 0.00 0.00 0.00 0.00 0.00
0.00 0.00 0.00 0.00 0.00 0.00 0.00 0.00 0.00 0.00 0.00 0.00 0.00 0.00 0.00 0.00 0.00 0.00 0.00 0.00 0.00 0.00 0.00 0.00 0.00 0.00 0.00 0.00 0.00 0.00 0.00 0.00 0.00 0.00 0.00 0.00 0.00 0.00 0.00 0.00 0.00 0.00
0.00 0.00 0.00 0.00 0.00 0.00 0.00 0.00 0.00 0.00 0.00 0.00 0.00 0.00 0.00 0.00 0.00 0.00 0.00 0.00 0.00 0.00 0.00 0.00 0.00 0.00 0.00 0.00 0.00 0.00 0.00 0.00 0.00 0.00 0.00 0.00 0.00 0.00 0.00 0.00 0.00 0.00
0.00 0.00 0.00 0.00 0.00 0.00 0.00 0.00 0.00 0.00 0.00 0.00 0.00 0.00 0.00 0.00 0.00 0.00 0.00 0.00 0.00 0.00 0.00 0.00 0.00 0.00 0.00 0.00 0.00 0.00 0.00 0.00 0.00 0.00 0.00 0.00 0.00 0.00 0.00 0.00 0.00 0.00
0.00 0.00 0.00 0.00 0.00 0.00 0.00 0.00 0.00 0.00 0.00 0.00 0.00 0.00 0.00 0.00 0.00 0.00 0.00 0.00 0.00 0.00 0.00 0.00 0.00 0.00 0.00 0.00 0.00 0.00 0.00 0.00 0.00 0.00 0.00 0.00 0.00 0.00 0.00 0.00 0.00 0.00
0.00 0.00 0.00 0.00 0.00 0.00 0.00 0.00 0.00 0.00 0.00 0.00 0.00 0.00 0.00 0.00 0.00 0.00 0.00 0.00 0.00 0.00 0.00 0.00 0.00 0.00 0.00 0.00 0.00 0.00 0.00 0.00 0.00 0.00 0.00 0.00 0.00 0.00 0.00 0.00 0.00 0.00
0.00 0.00 0.00 0.00 0.00 0.00 0.00 0.00 0.00 0.00 0.00 0.00 0.00 0.00 0.00 0.00 0.00 0.00 0.00 0.00 0.00 0.00 0.00 0.00 0.00 0.00 0.00 0.00 0.00 0.00 0.00 0.00 0.00 0.00 0.00 0.00 0.00 0.00 0.00 0.00 0.00 0.00
0.00 0.00 0.00 0.00 0.00 0.00 0.00 0.00 0.00 0.00 0.00 0.00 0.00 0.00 0.00 0.00 0.00 0.00 0.00 0.00 0.00 0.00 0.00 0.00 0.00 0.00 0.00 0.00 0.00 0.00 0.00 0.00 0.00 0.00 0.00 0.00 0.00 0.00 0.00 0.00 0.00 0.00
0.00 0.00 0.00 0.00 0.00 0.00 0.00 0.00 0.00 0.00 0.00 0.00 0.00 0.00 0.00 0.00 0.00 0.00 0.00 0.00 0.00 0.00 0.00 0.00 0.00 0.00 0.00 0.00 0.00 0.00 0.00 0.00 0.00 0.00 0.00 0.00 0.00 0.00 0.00 0.00 0.00 0.00
0.01 0.00 0.01 0.00 0.00 0.00 0.00 0.00 0.00 0.00 0.00 0.00 0.00 0.00 0.00 0.00 0.00 0.00 0.00 0.00 0.00 0.00 0.00 0.00 0.00 0.00 0.00 0.00 0.00 0.00 0.00 0.00 0.00 0.00 0.00 0.00 0.00 0.00 0.00 0.00 0.00 0.00
0.09 0.02 0.06 0.01 0.00 0.00 0.00 0.00 0.00 0.00 0.00 0.00 0.00 0.00 0.00 0.00 0.00 0.00 0.00 0.00 0.00 0.00 0.00 0.00 0.00 0.00 0.00 0.00 0.00 0.00 0.00 0.00 0.00 0.00 0.00 0.00 0.00 0.00 0.00 0.00 0.00 0.00
0.01 0.00 0.00 0.00 0.00 0.00 0.00 0.00 0.00 0.00 0.00 0.00 0.00 0.00 0.00 0.00 0.00 0.00 0.00 0.00 0.00 0.00 0.00 0.00 0.00 0.00 0.00 0.00 0.00 0.00 0.00 0.00 0.00 0.00 0.00 0.00 0.00 0.00 0.00 0.00 0.00 0.00
0.00 0.01 0.00 0.00 0.00 0.00 0.00 0.00 0.00 0.00 0.00 0.00 0.00 0.00 0.00 0.00 0.00 0.00 0.00 0.00 0.00 0.00 0.00 0.00 0.00 0.00 0.00 0.00 0.00 0.00 0.00 0.00 0.00 0.00 0.00 0.00 0.00 0.00 0.00 0.00 0.00 0.00
0.00 0.00 0.01 0.00 0.00 0.00 0.00 0.00 0.00 0.00 0.00 0.00 0.00 0.00 0.00 0.00 0.00 0.00 0.00 0.00 0.00 0.00 0.00 0.00 0.00 0.00 0.00 0.00 0.00 0.00 0.00 0.00 0.00 0.00 0.00 0.00 0.00 0.00 0.00 0.00 0.00 0.00
0.00 0.00 0.00 0.00 0.00 0.00 0.00 0.00 0.00 0.00 0.00 0.00 0.00 0.00 0.00 0.00 0.00 0.00 0.00 0.00 0.00 0.00 0.00 0.00 0.00 0.00 0.00 0.00 0.00 0.00 0.00 0.00 0.00 0.00 0.00 0.00 0.00 0.00 0.00 0.00 0.00 0.00
0.00 0.00 0.00 0.00 0.00 0.00 0.00 0.00 0.00 0.00 0.00 0.00 0.00 0.00 0.00 0.00 0.00 0.00 0.00 0.00 0.00 0.00 0.00 0.00 0.00 0.00 0.00 0.00 0.00 0.00 0.00 0.00 0.00 0.00 0.00 0.00 0.00 0.00 0.00 0.00 0.00 0.00
0.00 0.00 0.00 0.00 0.00 0.00 0.00 0.00 0.00 0.00 0.00 0.00 0.00 0.00 0.00 0.00 0.00 0.00 0.00 0.00 0.00 0.00 0.00 0.00 0.00 0.00 0.00 0.00 0.00 0.00 0.00 0.00 0.00 0.00 0.00 0.00 0.00 0.00 0.00 0.00 0.00 0.00
MSLP
1016.17 1016.45 1016.77 1017.05 1017.21 1017.25 1017.45 1017.77 1017.89 1018.13 1018.25 1018.37 1018.57 1018.57 1018.61 1018.53 1018.61 1018.73 1018.81 1018.89 1019.01 1019.13 1019.21 1019.29 1019.37 1019.53 1019.65 1019.77 1019.89 1020.09 1020.25 1020.33 1020.41 1020.45 1020.65 1020.73 1020.85 1020.93 1021.05 1021.01 1021.09 1021.17
1015.97 1016.17 1016.41 1016.73 1016.97 1017.05 1017.17 1017.25 1017.53 1017.77 1017.93 1018.05 1018.09 1018.17 1018.25 1018.37 1018.45 1018.57 1018.77 1018.89 1018.93 1019.05 1019.05 1019.17 1019.25 1019.41 1019.57 1019.73 1019.89 1020.13 1020.21 1020.29 1020.49 1020.29 1020.61 1020.69 1020.73 1020.81 1020.89 1020.89 1020.97 1021.01
1015.73 1016.09 1016.33 1016.61 1016.77 1016.85 1016.89 1016.97 1017.21 1017.37 1017.57 1017.69 1017.81 1017.97 1018.09 1018.13 1018.37 1018.45 1018.61 1018.77 1018.93 1018.97 1019.05 1019.09 1019.21 1019.29 1019.45 1019.61 1019.77 1020.01 1020.17 1020.25 1020.37 1020.29 1020.41 1020.53 1020.53 1020.69 1020.69 1020.73 1020.89 1020.93
1015.45 1015.65 1015.93 1016.13 1016.25 1016.53 1016.61 1016.93 1017.13 1017.25 1017.37 1017.73 1017.85 1017.69 1017.81 1017.93 1018.13 1018.41 1018.57 1018.69 1018.85 1018.93 1018.97 1019.05 1019.13 1019.25 1019.41 1019.53 1019.73 1019.93 1020.01 1020.09 1020.05 1020.13 1020.37 1020.37 1020.41 1020.53 1020.65 1020.69 1020.77 1020.81
1015.05 1015.41 1015.65 1015.85 1015.97 1016.13 1016.41 1016.77 1016.97 1017.09 1017.29 1017.25 1017.37 1017.57 1017.81 1017.97 1018.17 1018.33 1018.53 1018.69 1018.77 1018.93 1018.97 1019.05 1019.05 1019.21 1019.33 1019.53 1019.69 1019.93 1019.97 1020.09 1020.01 1020.13 1020.41 1020.53 1020.33 1020.45 1020.53 1020.65 1020.81 1020.89
1014.73 1014.97 1015.33 1015.65 1015.85 1016.13 1016.37 1016.49 1016.61 1016.81 1016.97 1017.17 1017.25 1017.33 1017.53 1017.65 1017.93 1018.13 1018.33 1018.61 1018.69 1018.85 1018.97 1018.97 1019.05 1019.09 1019.17 1019.41 1019.65 1019.81 1019.93 1020.05 1020.01 1020.17 1020.45 1020.57 1020.49 1020.37 1020.45 1020.57 1020.77 1020.89
1014.61 1014.81 1015.17 1015.41 1015.77 1015.97 1016.21 1016.21 1016.29 1016.45 1016.65 1016.65 1016.89 1017.21 1017.29 1017.61 1017.77 1017.85 1018.05 1018.25 1018.49 1018.69 1018.81 1018.89 1018.97 1019.01 1019.01 1019.25 1019.53 1019.77 1019.85 1019.89 1019.97 1020.13 1020.41 1020.49 1020.53 1020.57 1020.45 1020.57 1020.69 1020.85
1014.25 1014.45 1014.73 1015.09 1015.49 1015.77 1015.97 1016.01 1016.13 1016.21 1016.29 1016.57 1016.85 1016.85 1017.01 1017.29 1017.45 1017.57 1017.77 1017.97 1018.25 1018.45 1018.57 1018.65 1018.73 1018.81 1018.89 1019.09 1019.41 1019.65 1019.81 1019.81 1020.01 1020.13 1020.33 1020.45 1020.53 1020.69 1020.53 1020.53 1020.61 1020.81
1013.89 1014.21 1014.45 1014.81 1015.21 1015.45 1015.73 1015.81 1015.93 1015.97 1016.05 1016.37 1016.49 1016.61 1016.73 1016.89 1017.13 1017.29 1017.53 1017.77 1018.01 1018.13 1018.33 1018.53 1018.57 1018.65 1018.73 1018.93 1019.17 1019.37 1019.61 1019.77 1019.81 1020.01 1020.25 1020.45 1020.61 1020.61 1020.57 1020.53 1020.73 1020.81
1013.73 1013.85 1014.17 1014.45 1014.77 1014.85 1015.17 1015.33 1015.53 1015.73 1015.89 1016.09 1016.17 1016.33 1016.61 1016.61 1016.73 1016.97 1017.25 1017.57 1017.81 1017.97 1018.17 1018.33 1018.45 1018.53 1018.65 1018.73 1018.89 1019.09 1019.29 1019.49 1019.61 1019.81 1019.97 1020.13 1020.29 1020.37 1020.45 1020.57 1020.69 1020.85
1013.33 1013.53 1013.85 1014.05 1014.17 1014.25 1014.45 1014.69 1015.01 1015.29 1015.53 1015.81 1016.01 1016.25 1016.25 1016.45 1016.61 1016.65 1016.97 1017.29 1017.57 1017.73 1017.93 1018.13 1018.21 1018.33 1018.53 1018.61 1018.69 1018.73 1018.97 1019.17 1019.37 1019.57 1019.73 1019.85 1019.93 1020.09 1020.21 1020.41 1020.57 1020.69
1012.93 1013.13 1013.33 1013.45 1013.65 1013.85 1013.93 1014.09 1014.33 1014.69 1015.05 1015.29 1015.53 1015.93 1016.05 1016.13 1016.33 1016.49 1016.65 1016.93 1017.05 1017.21 1017.37 1017.61 1017.81 1018.01 1018.21 1018.33 1018.45 1018.57 1018.77 1018.93 1019.13 1019.33 1019.49 1019.61 1019.73 1019.85 1019.97 1020.09 1020.33 1020.37
1012.53 1012.65 1012.73 1012.97 1013.21 1013.41 1013.57 1013.81 1013.97 1014.09 1014.41 1014.77 1014.93 1015.33 1015.69 1015.93 1016.01 1016.21 1016.25 1016.45 1016.65 1016.81 1017.01 1017.17 1017.45 1017.65 1017.93 1018.05 1018.21 1018.37 1018.57 1018.81 1019.01 1019.13 1019.29 1019.41 1019.49 1019.61 1019.69 1019.85 1019.97 1020.09
1012.05 1012.17 1012.45 1012.61 1012.81 1013.09 1013.37 1013.53 1013.69 1013.85 1013.93 1014.09 1014.41 1014.85 1015.17 1015.41 1015.69 1015.89 1015.93 1016.09 1016.25 1016.45 1016.53 1016.73 1017.05 1017.37 1017.61 1017.81 1017.97 1018.17 1018.41 1018.61 1018.77 1018.97 1019.13 1019.21 1019.29 1019.33 1019.45 1019.57 1019.69 1019.81
1011.93 1012.09 1012.25 1012.49 1012.73 1013.01 1013.21 1013.41 1013.53 1013.69 1013.81 1013.97 1014.13 1014.33 1014.53 1014.77 1015.05 1015.33 1015.69 1015.93 1015.97 1016.13 1016.33 1016.49 1016.77 1017.01 1017.13 1017.41 1017.73 1017.93 1018.05 1018.33 1018.49 1018.65 1018.85 1019.05 1019.13 1019.17 1019.21 1019.29 1019.37 1019.45
1011.73 1011.85 1012.01 1012.25 1012.57 1012.81 1012.89 1013.05 1013.25 1013.49 1013.73 1013.93 1014.09 1014.17 1014.29 1014.45 1014.73 1014.93 1015.25 1015.53 1015.77 1015.89 1016.05 1016.25 1016.45 1016.45 1016.57 1016.81 1017.01 1017.37 1017.69 1017.89 1018.13 1018.33 1018.53 1018.69 1018.93 1019.05 1019.09 1019.05 1019.05 1019.09
1011.69 1011.93 1012.09 1012.41 1012.45 1012.61 1012.77 1012.97 1013.09 1013.17 1013.41 1013.65 1013.85 1014.01 1014.21 1014.33 1014.49 1014.77 1014.93 1015.05 1015.29 1015.53 1015.77 1015.89 1015.93 1015.93 1016.13 1016.45 1016.69 1016.85 1017.13 1017.49 1017.77 1018.01 1018.09 1018.33 1018.57 1018.77 1018.93 1018.89 1018.81 1018.73
1011.77 1011.85 1012.09 1012.21 1012.41 1012.65 1012.81 1012.93 1013.09 1013.25 1013.37 1013.41 1013.57 1013.81 1013.93 1014.05 1014.33 1014.41 1014.53 1014.69 1014.85 1015.05 1015.29 1015.37 1015.41 1015.41 1015.73 1016.09 1016.37 1016.61 1016.77 1017.01 1017.29 1017.61 1017.81 1018.01 1018.13 1018.33 1018.41 1018.49 1018.57 1018.57
1011.45 1011.65 1011.77 1011.89 1011.97 1012.01 1012.13 1012.41 1012.77 1013.05 1013.21 1013.33 1013.41 1013.29 1013.53 1013.93 1013.97 1014.13 1014.29 1014.33 1014.53 1014.77 1014.89 1014.81 1014.89 1014.89 1015.33 1015.65 1015.93 1016.21 1016.45 1016.61 1016.85 1017.09 1017.37 1017.57 1017.69 1017.81 1017.97 1018.09 1018.21 1018.37
1010.13 1010.89 1011.81 1011.73 1011.45 1011.53 1011.69 1011.97 1012.29 1012.49 1012.49 1012.57 1012.81 1013.09 1013.37 1013.45 1013.57 1013.77 1013.85 1014.05 1014.17 1014.33 1014.41 1014.41 1014.45 1014.41 1014.77 1015.13 1015.45 1015.73 1016.01 1016.37 1016.41 1016.61 1016.81 1017.01 1017.17 1017.29 1017.45 1017.65 1017.77 1017.97
1009.33 1009.53 1010.13 1010.49 1010.85 1011.13 1011.41 1011.57 1011.57 1011.73 1012.05 1012.25 1012.37 1012.53 1012.77 1013.01 1013.17 1013.37 1013.41 1013.53 1013.69 1013.81 1014.05 1014.09 1013.89 1013.89 1014.29 1014.61 1014.97 1015.29 1015.61 1016.01 1016.09 1016.21 1016.41 1016.57 1016.61 1016.69 1016.85 1016.97 1017.09 1017.25
1009.21 1009.05 1009.01 1009.53 1010.25 1010.81 1011.21 1011.37 1011.41 1011.41 1011.57 1011.65 1011.93 1011.97 1011.89 1012.05 1012.37 1012.57 1012.89 1013.05 1013.13 1013.37 1013.65 1013.73 1013.41 1013.45 1013.77 1014.09 1014.41 1014.81 1015.25 1015.81 1015.89 1016.05 1016.13 1016.17 1016.25 1016.25 1016.29 1016.29 1016.41 1016.61
1009.77 1009.73 1009.45 1009.45 1009.89 1010.49 1010.81 1010.97 1011.13 1011.29 1011.29 1011.25 1011.65 1011.73 1011.85 1011.77 1011.73 1011.89 1012.01 1012.33 1012.65 1012.85 1013.13 1013.13 1013.05 1012.97 1013.21 1013.49 1013.89 1014.33 1015.13 1015.45 1015.57 1015.73 1015.81 1015.85 1015.81 1015.73 1015.77 1015.81 1015.89 1016.01
1009.25 1009.49 1009.65 1009.65 1009.85 1010.09 1010.17 1010.25 1010.33 1010.49 1010.77 1010.81 1011.21 1011.33 1011.49 1011.37 1011.21 1011.33 1011.41 1011.57 1011.89 1012.17 1012.25 1012.61 1012.53 1012.41 1012.73 1013.01 1013.33 1013.89 1014.29 1014.73 1015.01 1015.29 1015.41 1015.49 1015.41 1015.25 1015.29 1015.45 1015.41 1015.45
1008.77 1008.89 1009.13 1009.37 1009.61 1009.65 1009.69 1009.89 1009.93 1009.97 1009.97 1010.17 1010.41 1010.61 1010.73 1010.73 1010.93 1011.09 1011.09 1011.09 1011.09 1011.33 1011.53 1011.93 1011.97 1011.97 1012.21 1012.49 1012.81 1013.29 1013.81 1013.97 1014.33 1014.77 1015.13 1015.17 1015.13 1015.13 1014.97 1015.09 1015.13 1015.09
1008.17 1008.37 1008.49 1008.77 1008.97 1009.05 1009.17 1009.17 1009.13 1009.37 1009.57 1009.77 1009.85 1009.97 1010.21 1010.29 1010.37 1010.57 1010.77 1010.77 1010.65 1010.89 1011.09 1011.25 1011.49 1011.53 1011.69 1011.93 1012.21 1012.65 1013.01 1013.25 1013.65 1014.33 1014.73 1014.65 1014.65 1014.81 1015.01 1014.89 1014.77 1014.81
Thickness
5794 5793 5791 5790 5790 5790 5791 5790 5788 5788 5787 5788 5788 5789 5790 5791 5791 5792 5791 5792 5792 5792 5792 5791 5791 5790 5790 5790 5789 5788 5788 5787 5786 5787 5787 5785 5785 5785 5784 5784 5784 5783
5796 5795 5793 5792 5791 5792 5793 5792 5791 5791 5790 5790 5791 5792 5793 5793 5792 5793 5792 5793 5793 5793 5793 5792 5792 5791 5791 5791 5790 5789 5789 5788 5787 5788 5787 5786 5787 5786 5785 5785 5785 5784
5798 5797 5795 5794 5794 5794 5794 5794 5793 5793 5793 5792 5793 5793 5794 5794 5794 5794 5793 5793 5793 5794 5794 5794 5793 5793 5792 5791 5791 5790 5789 5788 5788 5789 5788 5788 5789 5788 5787 5788 5787 5786
5799 5799 5798 5797 5797 5796 5796 5795 5794 5794 5794 5793 5794 5794 5795 5795 5794 5794 5794 5794 5794 5794 5794 5794 5794 5794 5793 5792 5791 5790 5790 5789 5790 5790 5789 5789 5790 5789 5789 5789 5787 5787
5801 5800 5799 5798 5798 5797 5797 5796 5796 5796 5796 5794 5795 5796 5795 5795 5795 5794 5794 5794 5794 5794 5794 5794 5794 5794 5793 5792 5791 5790 5790 5790 5791 5791 5789 5789 5791 5790 5790 5789 5788 5787
5801 5800 5800 5798 5798 5797 5797 5797 5798 5798 5797 5797 5797 5796 5796 5796 5795 5795 5795 5794 5795 5794 5794 5794 5794 5794 5794 5793 5792 5791 5791 5791 5791 5791 5789 5789 5790 5791 5792 5790 5788 5787
5800 5800 5800 5799 5798 5797 5797 5798 5798 5799 5799 5799 5798 5798 5797 5797 5796 5796 5796 5795 5795 5795 5794 5794 5795 5795 5795 5795 5793 5792 5792 5792 5792 5791 5790 5790 5790 5790 5791 5791 5789 5788
5801 5801 5800 5799 5798 5797 5797 5797 5798 5799 5800 5799 5799 5799 5799 5798 5797 5797 5797 5797 5796 5796 5795 5795 5795 5795 5796 5795 5794 5792 5792 5793 5792 5791 5790 5790 5790 5789 5791 5791 5790 5789
5801 5801 5800 5800 5799 5799 5798 5798 5798 5799 5799 5799 5799 5800 5800 5800 5799 5798 5798 5797 5797 5796 5796 5796 5796 5796 5796 5795 5795 5794 5793 5793 5793 5792 5791 5790 5790 5790 5790 5791 5789 5788
5801 5801 5801 5801 5801 5802 5801 5800 5800 5799 5799 5799 5799 5800 5800 5800 5801 5800 5799 5798 5796 5796 5796 5796 5795 5796 5795 5796 5796 5795 5795 5794 5793 5793 5793 5792 5791 5791 5791 5790 5788 5787
5802 5802 5802 5803 5804 5805 5805 5805 5803 5802 5801 5800 5799 5799 5800 5801 5801 5800 5799 5798 5797 5797 5796 5796 5796 5796 5796 5796 5796 5797 5796 5795 5795 5794 5794 5793 5793 5792 5792 5791 5789 5788
5802 5803 5805 5806 5806 5807 5807 5807 5807 5806 5805 5804 5802 5800 5800 5801 5801 5801 5801 5800 5798 5798 5798 5798 5797 5797 5796 5796 5796 5797 5797 5796 5796 5795 5795 5794 5794 5793 5793 5792 5791 5790
5805 5806 5808 5808 5808 5808 5808 5808 5809 5809 5809 5808 5806 5804 5802 5802 5802 5802 5802 5801 5800 5800 5800 5800 5799 5797 5797 5797 5797 5797 5797 5796 5796 5796 5795 5795 5795 5794 5793 5793 5792 5792
5806 5807 5807 5808 5808 5808 5807 5808 5809 5810 5811 5811 5809 5808 5806 5805 5804 5803 5803 5803 5802 5801 5801 5801 5800 5798 5798 5798 5797 5797 5797 5796 5796 5795 5795 5795 5795 5795 5794 5793 5793 5793
5804 5805 5805 5806 5806 5806 5806 5807 5808 5809 5809 5809 5809 5810 5809 5808 5807 5805 5804 5803 5803 5803 5802 5801 5800 5799 5800 5799 5798 5798 5798 5797 5797 5796 5796 5795 5795 5795 5795 5795 5794 5794
5800 5803 5804 5804 5805 5806 5807 5807 5808 5808 5808 5807 5808 5809 5809 5809 5808 5807 5806 5805 5804 5803 5803 5802 5802 5802 5802 5801 5800 5800 5799 5798 5797 5797 5797 5795 5795 5794 5795 5795 5795 5795
5797 5798 5799 5800 5802 5803 5804 5805 5806 5807 5807 5808 5807 5807 5807 5807 5807 5807 5808 5808 5806 5805 5805 5804 5804 5804 5803 5801 5800 5800 5800 5799 5798 5797 5797 5796 5796 5795 5795 5795 5796 5796
5790 5792 5793 5795 5797 5798 5799 5800 5801 5803 5805 5806 5807 5807 5807 5806 5807 5807 5808 5808 5807 5807 5807 5807 5807 5806 5804 5802 5801 5800 5800 5800 5799 5798 5797 5797 5797 5796 5796 5796 5796 5797
5790 5788 5789 5790 5793 5797 5798 5798 5798 5800 5802 5804 5806 5807 5807 5806 5807 5808 5807 5808 5808 5808 5808 5808 5809 5808 5806 5803 5802 5801 5800 5799 5800 5799 5798 5798 5798 5798 5797 5797 5797 5797
5801 5794 5791 5790 5793 5795 5798 5798 5799 5800 5802 5804 5805 5805 5805 5806 5808 5808 5808 5808 5809 5809 5809 5810 5811 5811 5808 5805 5802 5801 5800 5799 5799 5799 5799 5799 5800 5799 5799 5799 5799 5798
5812 5809 5804 5799 5796 5795 5795 5797 5801 5802 5803 5804 5804 5805 5807 5808 5809 5808 5808 5809 5809 5809 5809 5810 5812 5813 5810 5807 5805 5802 5800 5799 5799 5799 5799 5800 5801 5802 5802 5802 5802 5801
5808 5811 5812 5809 5801 5795 5794 5796 5799 5802 5804 5804 5804 5805 5808 5809 5810 5810 5811 5810 5810 5810 5810 5811 5814 5814 5811 5809 5807 5804 5800 5798 5798 5799 5799 5800 5801 5803 5803 5804 5804 5803
5798 5801 5806 5808 5803 5798 5796 5797 5799 5800 5802 5803 5803 5803 5806 5809 5811 5813 5813 5812 5811 5811 5811 5812 5814 5815 5813 5811 5809 5805 5801 5799 5799 5799 5799 5800 5802 5803 5804 5804 5805 5805
5796 5797 5800 5803 5803 5802 5801 5800 5800 5800 5801 5803 5803 5804 5806 5808 5810 5812 5813 5814 5813 5813 5813 5814 5814 5816 5814 5812 5810 5807 5804 5803 5802 5800 5799 5800 5802 5803 5804 5804 5805 5805
5799 5800 5802 5803 5804 5805 5804 5803 5802 5803 5804 5804 5805 5806 5807 5808 5809 5810 5811 5814 5815 5815 5815 5814 5814 5816 5815 5813 5812 5809 5807 5807 5805 5802 5800 5801 5802 5803 5803 5804 5804 5805
5802 5803 5804 5806 5807 5807 5807 5806 5805 5806 5806 5806 5807 5808 5808 5808 5810 5810 5811 5813 5815 5815 5815 5815 5815 5815 5815 5815 5813 5811 5810 5809 5807 5803 5803 5802 5802 5802 5801 5802 5804 5805